When you browse on this site, cookies collect data to enhance your experience and personalize the content and advertising you see.
Visit our Privacy Policy to learn more. By continuing to use the site, you agree to this use of cookies and data.
EN

Hourly Weather Comanesti

Today, 9 August, Sunday

Time Temperature Precipitation Wind Pressure Humidity
00:00 +18°C° 0 mm 2 mps 713 mmHg 88%
01:00 +17°C° 0 mm 2 mps 713 mmHg 89%
02:00 +17°C° 0 mm 2 mps 713 mmHg 91%
03:00 +17°C° 0 mm 2 mps 713 mmHg 91%
04:00 +17°C° 0 mm 2 mps 713 mmHg 92%
05:00 +16°C° 0 mm 2 mps 712 mmHg 92%
06:00 +18°C° 0 mm 2 mps 713 mmHg 86%
07:00 +19°C° 0 mm 3 mps 713 mmHg 81%
08:00 +20°C° 0 mm 3 mps 713 mmHg 75%
09:00 +21°C° 0 mm 3 mps 713 mmHg 71%
10:00 +24°C° 0 mm 3 mps 713 mmHg 66%
11:00 +25°C° 0 mm 4 mps 713 mmHg 62%
12:00 +25°C° 0 mm 4 mps 713 mmHg 60%
13:00 +25°C° 0 mm 4 mps 713 mmHg 59%
14:00 +26°C° 0 mm 4 mps 712 mmHg 57%
15:00 +26°C° 0.1 mm 3 mps 712 mmHg 58%
16:00 +26°C° 0.1 mm 3 mps 712 mmHg 59%
17:00 +25°C° 0.1 mm 3 mps 712 mmHg 60%
18:00 +24°C° 0.1 mm 2 mps 712 mmHg 68%
19:00 +21°C° 0.1 mm 2 mps 712 mmHg 76%
20:00 +20°C° 0.1 mm 1 mps 711 mmHg 83%
21:00 +19°C° 0 mm 1 mps 712 mmHg 85%
22:00 +19°C° 0 mm 1 mps 712 mmHg 86%
23:00 +18°C° 0 mm 1 mps 712 mmHg 88%

Tomorrow, 10 August, Monday

Time Temperature Precipitation Wind Pressure Humidity
00:00 +18°C° 0 mm 1 mps 712 mmHg 88%
01:00 +18°C° 0 mm 1 mps 711 mmHg 88%
02:00 +18°C° 0 mm 1 mps 711 mmHg 88%
03:00 +18°C° 0 mm 1 mps 711 mmHg 87%
04:00 +16°C° 0 mm 1 mps 711 mmHg 87%
05:00 +16°C° 0 mm 1 mps 711 mmHg 86%
06:00 +19°C° 0 mm 1 mps 711 mmHg 80%
07:00 +21°C° 0 mm 1 mps 712 mmHg 74%
08:00 +23°C° 0 mm 1 mps 712 mmHg 67%
09:00 +24°C° 0 mm 1 mps 712 mmHg 61%
10:00 +25°C° 0 mm 1 mps 712 mmHg 55%
11:00 +27°C° 0 mm 2 mps 712 mmHg 49%
12:00 +27°C° 0.1 mm 2 mps 712 mmHg 51%
13:00 +27°C° 0.1 mm 2 mps 712 mmHg 52%
14:00 +27°C° 0.1 mm 2 mps 712 mmHg 54%
15:00 +26°C° 0.6 mm 2 mps 711 mmHg 57%
16:00 +26°C° 0.6 mm 1 mps 711 mmHg 59%
17:00 +25°C° 0.6 mm 1 mps 711 mmHg 62%
18:00 +24°C° 0.5 mm 1 mps 711 mmHg 69%
19:00 +22°C° 0.5 mm 1 mps 711 mmHg 75%
20:00 +20°C° 0.5 mm 1 mps 711 mmHg 81%
21:00 +20°C° 0.1 mm 1 mps 711 mmHg 83%
22:00 +19°C° 0.1 mm 1 mps 711 mmHg 85%
23:00 +19°C° 0.1 mm 1 mps 711 mmHg 87%

Day after tomorrow, 11 August, Tuesday

Time Temperature Precipitation Wind Pressure Humidity
00:00 +18°C° 0 mm 1 mps 711 mmHg 86%
01:00 +18°C° 0 mm 1 mps 711 mmHg 86%
02:00 +18°C° 0 mm 1 mps 711 mmHg 86%
03:00 +16°C° 0 mm 1 mps 711 mmHg 86%
04:00 +16°C° 0 mm 1 mps 711 mmHg 87%
05:00 +16°C° 0 mm 1 mps 711 mmHg 87%
06:00 +19°C° 0 mm 1 mps 711 mmHg 83%
07:00 +20°C° 0 mm 1 mps 711 mmHg 79%
08:00 +22°C° 0 mm 1 mps 712 mmHg 75%
09:00 +23°C° 0.9 mm 1 mps 712 mmHg 73%
10:00 +24°C° 0.9 mm 1 mps 712 mmHg 70%
11:00 +25°C° 0.9 mm 1 mps 712 mmHg 68%
12:00 +25°C° 1.4 mm 1 mps 712 mmHg 66%
13:00 +26°C° 1.4 mm 1 mps 712 mmHg 65%
14:00 +26°C° 1.4 mm 1 mps 712 mmHg 63%
15:00 +26°C° 0.6 mm 1 mps 711 mmHg 65%
16:00 +25°C° 0.6 mm 1 mps 711 mmHg 66%
17:00 +25°C° 0.6 mm 1 mps 711 mmHg 68%
18:00 +24°C° 0.1 mm 1 mps 711 mmHg 71%
19:00 +22°C° 0.1 mm 1 mps 711 mmHg 74%
20:00 +21°C° 0.1 mm 1 mps 711 mmHg 77%
21:00 +20°C° 0.4 mm 1 mps 711 mmHg 80%
22:00 +19°C° 0.4 mm 1 mps 711 mmHg 83%
23:00 +18°C° 0.4 mm 1 mps 711 mmHg 86%

12 August, Wednesday

Time Temperature Precipitation Wind Pressure Humidity
00:00 +18°C° 0.5 mm 1 mps 711 mmHg 87%
01:00 +18°C° 0.5 mm 1 mps 711 mmHg 88%
02:00 +18°C° 0.5 mm 1 mps 711 mmHg 90%
03:00 +16°C° 0.7 mm 1 mps 711 mmHg 91%
04:00 +16°C° 0.7 mm 1 mps 711 mmHg 92%
05:00 +16°C° 0.7 mm 1 mps 711 mmHg 93%
06:00 +17°C° 0.6 mm 2 mps 711 mmHg 90%
07:00 +19°C° 0.6 mm 2 mps 711 mmHg 87%
08:00 +20°C° 0.6 mm 2 mps 712 mmHg 84%
09:00 +21°C° 1.1 mm 2 mps 712 mmHg 81%
10:00 +23°C° 1.1 mm 2 mps 712 mmHg 77%
11:00 +24°C° 1.1 mm 3 mps 712 mmHg 74%
12:00 +24°C° 0.8 mm 3 mps 712 mmHg 70%
13:00 +25°C° 0.8 mm 3 mps 712 mmHg 67%
14:00 +25°C° 0.8 mm 3 mps 712 mmHg 63%
15:00 +25°C° 0.3 mm 3 mps 712 mmHg 64%
16:00 +25°C° 0.3 mm 3 mps 712 mmHg 64%
17:00 +25°C° 0.3 mm 3 mps 712 mmHg 64%
18:00 +23°C° 0.1 mm 2 mps 712 mmHg 72%
19:00 +20°C° 0.1 mm 2 mps 712 mmHg 80%
20:00 +18°C° 0.1 mm 2 mps 712 mmHg 87%
21:00 +17°C° 0 mm 2 mps 713 mmHg 88%
22:00 +17°C° 0 mm 2 mps 713 mmHg 89%
23:00 +16°C° 0 mm 2 mps 713 mmHg 90%

13 August, Thursday

Time Temperature Precipitation Wind Pressure Humidity
00:00 +16°C° 0 mm 2 mps 713 mmHg 88%
01:00 +16°C° 0 mm 2 mps 713 mmHg 87%
02:00 +16°C° 0 mm 2 mps 713 mmHg 85%
03:00 +15°C° 0 mm 1 mps 713 mmHg 87%
04:00 +14°C° 0 mm 1 mps 713 mmHg 89%
05:00 +13°C° 0 mm 1 mps 713 mmHg 91%
06:00 +15°C° 0 mm 1 mps 713 mmHg 84%
07:00 +16°C° 0 mm 1 mps 714 mmHg 77%
08:00 +19°C° 0 mm 1 mps 714 mmHg 70%
09:00 +20°C° 0 mm 1 mps 714 mmHg 66%
10:00 +22°C° 0 mm 1 mps 714 mmHg 61%
11:00 +23°C° 0 mm 2 mps 714 mmHg 56%
12:00 +24°C° 0 mm 2 mps 714 mmHg 55%
13:00 +25°C° 0 mm 1 mps 714 mmHg 54%
14:00 +25°C° 0 mm 1 mps 713 mmHg 53%
15:00 +25°C° 0.1 mm 1 mps 713 mmHg 54%
16:00 +25°C° 0.1 mm 1 mps 713 mmHg 56%
17:00 +25°C° 0.1 mm 1 mps 713 mmHg 58%
18:00 +23°C° 0 mm 1 mps 713 mmHg 64%
19:00 +21°C° 0 mm 1 mps 713 mmHg 70%
20:00 +19°C° 0 mm 1 mps 713 mmHg 75%
21:00 +17°C° 0 mm 0 mps 713 mmHg 76%
22:00 +16°C° 0 mm 0 mps 713 mmHg 77%
23:00 +15°C° 0 mm 0 mps 713 mmHg 78%

14 August, Friday

Time Temperature Precipitation Wind Pressure Humidity
00:00 +15°C° 0 mm 0 mps 713 mmHg 78%
01:00 +14°C° 0 mm 0 mps 712 mmHg 77%
02:00 +14°C° 0 mm 0 mps 712 mmHg 77%
03:00 +14°C° 0 mm 0 mps 712 mmHg 77%
04:00 +14°C° 0 mm 1 mps 712 mmHg 77%
05:00 +14°C° 0 mm 1 mps 712 mmHg 77%
06:00 +16°C° 0 mm 1 mps 712 mmHg 72%
07:00 +20°C° 0 mm 1 mps 713 mmHg 67%
08:00 +20°C° 0 mm 0 mps 713 mmHg 62%
09:00 +23°C° 0 mm 1 mps 713 mmHg 59%
10:00 +25°C° 0 mm 1 mps 713 mmHg 55%
11:00 +26°C° 0 mm 1 mps 713 mmHg 51%
12:00 +27°C° 0.1 mm 1 mps 713 mmHg 51%
13:00 +27°C° 0.1 mm 1 mps 713 mmHg 51%
14:00 +28°C° 0.1 mm 1 mps 712 mmHg 51%
15:00 +28°C° 0.2 mm 1 mps 712 mmHg 53%
16:00 +27°C° 0.2 mm 1 mps 712 mmHg 55%
17:00 +27°C° 0.2 mm 1 mps 712 mmHg 58%
18:00 +25°C° 0.1 mm 1 mps 712 mmHg 63%
19:00 +23°C° 0.1 mm 1 mps 712 mmHg 69%
20:00 +21°C° 0.1 mm 1 mps 712 mmHg 74%
21:00 +21°C° 0 mm 1 mps 712 mmHg 75%
22:00 +20°C° 0 mm 1 mps 712 mmHg 76%
23:00 +20°C° 0 mm 1 mps 712 mmHg 76%
Show more